When you browse on this site, cookies collect data to enhance your experience and personalize the content and advertising you see.
Visit our Privacy Policy to learn more. By continuing to use the site, you agree to this use of cookies and data.
  • In Deutschland
  • Länderverzeichnis
  • Für 7 Tage
  • Wassertemperatur
  • Wetterkarte
  • Widgets
  • user-avatar
    Anmelden

    Stündliche Wetter Hannover

    Heute, 21 August, Mittwoch

    Zeit Temperatur Niederschläge Wind Luftdruck Luftfeuchtigkeit
    00:00 +15°C° 0 mm 2 m/S 763 mmHg 79%
    01:00 +14°C° 0 mm 1 m/S 764 mmHg 84%
    02:00 +14°C° 0 mm 2 m/S 764 mmHg 86%
    03:00 +13°C° 0 mm 2 m/S 764 mmHg 87%
    04:00 +13°C° 0 mm 2 m/S 764 mmHg 89%
    05:00 +13°C° 0 mm 2 m/S 764 mmHg 87%
    06:00 +14°C° 0 mm 2 m/S 765 mmHg 84%
    07:00 +14°C° 0 mm 1 m/S 765 mmHg 82%
    08:00 +16°C° 0 mm 2 m/S 765 mmHg 73%
    09:00 +18°C° 0 mm 2 m/S 765 mmHg 64%
    10:00 +19°C° 0 mm 2 m/S 766 mmHg 55%
    11:00 +20°C° 0 mm 2 m/S 765 mmHg 51%
    12:00 +21°C° 0 mm 2 m/S 765 mmHg 47%
    13:00 +23°C° 0 mm 2 m/S 765 mmHg 43%
    14:00 +23°C° 0 mm 2 m/S 765 mmHg 43%
    15:00 +23°C° 0 mm 2 m/S 765 mmHg 42%
    16:00 +23°C° 0 mm 1 m/S 765 mmHg 42%
    17:00 +22°C° 0 mm 1 m/S 765 mmHg 47%
    18:00 +21°C° 0 mm 1 m/S 765 mmHg 52%
    19:00 +20°C° 0 mm 1 m/S 765 mmHg 57%
    20:00 +19°C° 0 mm 1 m/S 765 mmHg 59%
    21:00 +18°C° 0 mm 1 m/S 765 mmHg 61%
    22:00 +16°C° 0 mm 1 m/S 765 mmHg 62%
    23:00 +16°C° 0 mm 1 m/S 765 mmHg 64%

    Morgen, 22 August, Donnerstag

    Zeit Temperatur Niederschläge Wind Luftdruck Luftfeuchtigkeit
    00:00 +15°C° 0 mm 1 m/S 765 mmHg 65%
    01:00 +15°C° 0 mm 1 m/S 765 mmHg 67%
    02:00 +14°C° 0 mm 2 m/S 765 mmHg 68%
    03:00 +14°C° 0 mm 2 m/S 765 mmHg 69%
    04:00 +14°C° 0 mm 2 m/S 764 mmHg 70%
    05:00 +15°C° 0 mm 2 m/S 764 mmHg 69%
    06:00 +15°C° 0 mm 2 m/S 764 mmHg 67%
    07:00 +16°C° 0 mm 2 m/S 765 mmHg 66%
    08:00 +18°C° 0 mm 3 m/S 764 mmHg 60%
    09:00 +21°C° 0 mm 3 m/S 764 mmHg 54%
    10:00 +24°C° 0 mm 3 m/S 764 mmHg 48%
    11:00 +25°C° 0 mm 3 m/S 764 mmHg 44%
    12:00 +26°C° 0 mm 3 m/S 764 mmHg 41%
    13:00 +27°C° 0 mm 3 m/S 764 mmHg 37%
    14:00 +27°C° 0 mm 2 m/S 763 mmHg 37%
    15:00 +27°C° 0 mm 2 m/S 763 mmHg 36%
    16:00 +27°C° 0 mm 2 m/S 763 mmHg 36%
    17:00 +26°C° 0 mm 1 m/S 763 mmHg 41%
    18:00 +24°C° 0 mm 1 m/S 763 mmHg 47%
    19:00 +23°C° 0 mm 1 m/S 763 mmHg 53%
    20:00 +22°C° 0 mm 1 m/S 763 mmHg 57%
    21:00 +20°C° 0 mm 1 m/S 764 mmHg 60%
    22:00 +19°C° 0 mm 1 m/S 764 mmHg 64%
    23:00 +19°C° 0 mm 1 m/S 764 mmHg 67%

    übermorgen, 23 August, Freitag

    Zeit Temperatur Niederschläge Wind Luftdruck Luftfeuchtigkeit
    00:00 +18°C° 0 mm 1 m/S 764 mmHg 69%
    01:00 +15°C° 0 mm 0 m/S 764 mmHg 71%
    02:00 +15°C° 0 mm 0 m/S 764 mmHg 72%
    03:00 +15°C° 0 mm 0 m/S 764 mmHg 73%
    04:00 +14°C° 0 mm 0 m/S 763 mmHg 75%
    05:00 +15°C° 0 mm 0 m/S 764 mmHg 72%
    06:00 +18°C° 0 mm 1 m/S 764 mmHg 70%
    07:00 +19°C° 0 mm 1 m/S 764 mmHg 67%
    08:00 +21°C° 0 mm 1 m/S 764 mmHg 60%
    09:00 +23°C° 0 mm 1 m/S 764 mmHg 53%
    10:00 +23°C° 0 mm 0 m/S 764 mmHg 46%
    11:00 +26°C° 0 mm 1 m/S 764 mmHg 43%
    12:00 +27°C° 0 mm 1 m/S 763 mmHg 39%
    13:00 +28°C° 0 mm 1 m/S 763 mmHg 36%
    14:00 +28°C° 0 mm 1 m/S 763 mmHg 35%
    15:00 +28°C° 0 mm 1 m/S 762 mmHg 35%
    16:00 +28°C° 0 mm 1 m/S 762 mmHg 35%
    17:00 +27°C° 0 mm 1 m/S 762 mmHg 41%
    18:00 +25°C° 0 mm 1 m/S 762 mmHg 47%
    19:00 +24°C° 0 mm 1 m/S 762 mmHg 54%
    20:00 +22°C° 0 mm 1 m/S 762 mmHg 57%
    21:00 +20°C° 0 mm 2 m/S 762 mmHg 60%
    22:00 +19°C° 0 mm 2 m/S 762 mmHg 64%
    23:00 +20°C° 0 mm 1 m/S 762 mmHg 66%

    24 August, Samstag

    Zeit Temperatur Niederschläge Wind Luftdruck Luftfeuchtigkeit
    00:00 +19°C° 0 mm 1 m/S 762 mmHg 68%
    01:00 +19°C° 0 mm 1 m/S 762 mmHg 70%
    02:00 +18°C° 0 mm 1 m/S 762 mmHg 71%
    03:00 +18°C° 0 mm 1 m/S 762 mmHg 71%
    04:00 +18°C° 0 mm 1 m/S 761 mmHg 72%
    05:00 +18°C° 0 mm 1 m/S 761 mmHg 71%
    06:00 +19°C° 0 mm 1 m/S 761 mmHg 70%
    07:00 +20°C° 0 mm 1 m/S 761 mmHg 69%
    08:00 +22°C° 0 mm 1 m/S 761 mmHg 64%
    09:00 +24°C° 0 mm 2 m/S 761 mmHg 59%
    10:00 +26°C° 0 mm 3 m/S 761 mmHg 55%
    11:00 +27°C° 0 mm 3 m/S 761 mmHg 51%
    12:00 +27°C° 0 mm 3 m/S 761 mmHg 48%
    13:00 +28°C° 0 mm 3 m/S 760 mmHg 44%
    14:00 +29°C° 0 mm 3 m/S 760 mmHg 44%
    15:00 +29°C° 0 mm 3 m/S 760 mmHg 43%
    16:00 +29°C° 0 mm 3 m/S 759 mmHg 43%
    17:00 +27°C° 0 mm 3 m/S 759 mmHg 49%
    18:00 +26°C° 0 mm 2 m/S 759 mmHg 54%
    19:00 +25°C° 0 mm 2 m/S 759 mmHg 60%
    20:00 +24°C° 0 mm 2 m/S 759 mmHg 63%
    21:00 +23°C° 0 mm 2 m/S 759 mmHg 67%
    22:00 +20°C° 0 mm 2 m/S 760 mmHg 71%
    23:00 +20°C° 0 mm 2 m/S 760 mmHg 73%

    25 August, Sonntag

    Zeit Temperatur Niederschläge Wind Luftdruck Luftfeuchtigkeit
    00:00 +19°C° 0 mm 2 m/S 759 mmHg 75%
    01:00 +19°C° 0 mm 2 m/S 759 mmHg 77%
    02:00 +18°C° 0 mm 2 m/S 759 mmHg 78%
    03:00 +18°C° 0 mm 2 m/S 759 mmHg 80%
    04:00 +17°C° 0 mm 2 m/S 759 mmHg 82%
    05:00 +18°C° 0 mm 2 m/S 759 mmHg 80%
    06:00 +18°C° 0 mm 2 m/S 759 mmHg 79%
    07:00 +19°C° 0 mm 2 m/S 759 mmHg 77%
    08:00 +21°C° 0 mm 2 m/S 759 mmHg 71%
    09:00 +24°C° 0 mm 2 m/S 759 mmHg 65%
    10:00 +26°C° 0 mm 3 m/S 758 mmHg 59%
    11:00 +27°C° 0 mm 3 m/S 758 mmHg 55%
    12:00 +28°C° 0 mm 2 m/S 758 mmHg 50%
    13:00 +30°C° 0 mm 2 m/S 758 mmHg 46%
    14:00 +30°C° 0 mm 2 m/S 757 mmHg 44%
    15:00 +30°C° 0 mm 2 m/S 757 mmHg 43%
    16:00 +31°C° 0 mm 1 m/S 757 mmHg 41%
    17:00 +29°C° 0 mm 1 m/S 757 mmHg 46%
    18:00 +28°C° 0 mm 1 m/S 757 mmHg 52%
    19:00 +26°C° 0 mm 1 m/S 757 mmHg 57%
    20:00 +25°C° 0 mm 1 m/S 757 mmHg 62%
    21:00 +24°C° 0 mm 1 m/S 757 mmHg 67%
    22:00 +23°C° 0 mm 1 m/S 757 mmHg 72%
    23:00 +23°C° 0 mm 1 m/S 757 mmHg 75%

    26 August, Montag

    Zeit Temperatur Niederschläge Wind Luftdruck Luftfeuchtigkeit
    00:00 +22°C° 0 mm 1 m/S 757 mmHg 77%
    01:00 +22°C° 0 mm 1 m/S 756 mmHg 80%
    02:00 +22°C° 0 mm 1 m/S 756 mmHg 80%
    03:00 +21°C° 0 mm 1 m/S 756 mmHg 81%
    04:00 +21°C° 0 mm 1 m/S 756 mmHg 82%
    05:00 +22°C° 0 mm 1 m/S 756 mmHg 80%
    06:00 +22°C° 0 mm 1 m/S 756 mmHg 78%
    07:00 +23°C° 0 mm 1 m/S 756 mmHg 76%
    08:00 +25°C° 0 mm 2 m/S 756 mmHg 67%
    09:00 +27°C° 0 mm 2 m/S 756 mmHg 59%
    10:00 +29°C° 0 mm 2 m/S 756 mmHg 50%
    11:00 +31°C° 0 mm 3 m/S 756 mmHg 46%
    12:00 +33°C° 0 mm 3 m/S 755 mmHg 41%
    13:00 +34°C° 0 mm 3 m/S 755 mmHg 36%
    14:00 +34°C° 0 mm 3 m/S 755 mmHg 36%
    15:00 +34°C° 0 mm 3 m/S 755 mmHg 35%
    16:00 +34°C° 0 mm 3 m/S 755 mmHg 35%
    17:00 +32°C° 0 mm 4 m/S 755 mmHg 43%
    18:00 +29°C° 0 mm 4 m/S 755 mmHg 51%
    19:00 +27°C° 0 mm 4 m/S 755 mmHg 59%
    20:00 +23°C° 0.8 mm 4 m/S 756 mmHg 68%
    21:00 +21°C° 0.8 mm 3 m/S 756 mmHg 78%
    22:00 +19°C° 0.8 mm 3 m/S 757 mmHg 88%
    23:00 +18°C° 0 mm 3 m/S 757 mmHg 88%
    Mehr zeigen